Погода в Выборге

Погода в Выборге : погода сейчас, прогноз погоды и архив. Всё, что Вы хотите узнать о погоде в Выборге!

Хотите узнать прогноз погоды в Выборге? Тогда Вам сюда: Погода в Выборге

Поиск расширенной информации на нашем сайте:

Другие новости

Новости СМИ2

Главная страница сайта

Новости сайта

03.07.2017

Напоминаем, что на нашем специализированном сайте Метеоцентр.Азия вы можете получить высокодетализированные автоматические прогнозы погоды по пунктам России, СНГ и мира в авиационном формате (включающие направление и скорость ветра, видимость, явления погоды, количество и форму облачности, нижнюю и верхнюю границу облачности).


Погода в Выборге - сегодня

Время (UTC), дата Ветер
(°,м/с) 
Видим.   Явления Облачность Т
(°С)
Тd
(°С)
f(%) Тe
(°С)
Pmin
(гПа)
dP
(гПа)
Po
(мм)
O2
(г/м3)
Тmin Tmax R s Состояние
почвы
00 15.08.18 140 (ЮВ) 10 км    10/0 верхняя 
[Cs]
+14.3 +12.3 88 +19  1011  -0.5  757  288           
09 15.08.18 180 (Ю) 20000 м    8/5 600 м средняя, верхняя 
[Cu med, cong|Ac trans|Ci fib]
+21 +10.8 52 +23  1009.8  756  281           
12 15.08.18 080 (В) 20000 м    9/4 600 м кучево-дожд., средняя, верхняя 
[Cb cap|Ac trans|Ci fib]
+21.6 +9.8 47 +22  1009.8  756  281           
15 15.08.18 180 (Ю) 20000 м    9/5 600 м кучево-дожд., средняя, верхняя 
[Cb cap|Ac trans|Cs]
+19.9 +12.4 62 +25  1010.9  1.1  757  282           
21 15.08.18 030 (СВ) 10 км  {ливн. осадки}  10/4 600 м кучево-дожд., средняя 
[Cb cap|Ac As]
+15.4 +14.3 93 +24  1013.7  1.3  759  287           
09 16.08.18 210 (ЮЗ) 20000 м    6/5 600 м кучево-дожд., средняя 
[Cb cap|Ac As]
+21.5 +12.3 56 +25  1018.6  763  283           
12 16.08.18 210 (ЮЗ) 20000 м    8/6 600 м кучево-дожд., средняя 
[Cb calv|Ac As]
+22.2 +13.6 58 +28  1019.3  0.7  763  282           
15 16.08.18 210 (ЮЗ) 20000 м    1/0 2000 м средняя 
[Ac trans]
+21.3 +13.3 60 +27  1019.7  0.4  764  283           
21 16.08.18 130 (ЮВ) 20000 м    ясно 
+17.2 +14.2 83 +25  1020.6  0.5  764  287           
00 17.08.18 120 (ЮВ) 20000 м    ясно 
+15.2 +13.4 89 +23  1021.3  0.5  765  289           
09 17.08.18 210 (ЮЗ) 20000 м    8/8 600 м кучево-дожд. 
[Cb cap]
+20.6 +16.3 76 +31  1021.4  0.1  765  283           
15 17.08.18 220 (ЮЗ) 20000 м    3/3 1000 м верхняя 
[Cu med, cong|Ci sp]
+22.3 +15.8 67 +32  1019.9  -1.2  764  281           
21 17.08.18 180 (Ю) 10 км    3/0 средняя 
[Ac trans]
+19.1 +15.9 82 +30  1018.6  -0.3  763  284           
00 18.08.18 200 (Ю) 10 км    6/6 600 м кучево-дожд. 
[Cb cap]
+19.3 +16.1 82 +30  1018.3  -0.3  763  284           
09 18.08.18 200 (Ю) 20000 м    3/3 1000 м верхняя 
[Cu hum|Ci fib]
+23.1 +17.5 71 +36  1017.1  -0.4  762  279           
12 18.08.18 210 (ЮЗ) 20000 м    4/3 1000 м верхняя 
[Cu hum|Ci fib]
+24 +16.6 63 +35  1016.5  -0.4  761  278           
15 18.08.18 210 (ЮЗ) 20000 м    4/3 1000 м кучево-дожд., верхняя 
[Cb cap|Ci fib]
+24.1 +16.5 63 +35  1015.1  -1.4  760  278           
21 18.08.18 190 (Ю) 10 км    ясно 
+21.6 +17.6 78 +35  1012.6  -1.4  758  279           
00 19.08.18 240 (ЮЗ) 10 км    ясно 
+19.3 +16.4 83 +31  1012.2  -0.4  758  282           
06 19.08.18 220 (ЮЗ) 10-12{13}  20000 м    9/6 570 м кучево-дожд., средняя, верхняя 
[Cb cap|Ac As|Ci fib]
+18.9 +15.3 80 +28  1010.5  -1.3  757  282  +17.1        влажная 
21 19.08.18 300 (СЗ) 20000 м    1/0 2000 м средняя 
[Ac As]
+15.9 +12.5 80 +21  1009.4  756  285           
00 20.08.18 310 (СЗ) 20000 м    ясно 
+13.5 +10.9 84 +16  1010.2  0.8  757  288           
09 20.08.18 180 (Ю) 20000 м    4/3 600 м средняя 
[Cu med, cong|Ac trans]
+19.6 +10.1 54 +21  1009.8  -1  756  283           
12 20.08.18 220 (ЮЗ) 20000 м    9/4 600 м средняя 
[Cu med, cong|Ac As]
+20.1 +11.2 57 +23  1008.3  -1.5  755  281           
21 20.08.18 010 (С) 10 км  слаб. ливневой дождь  10/8 600 м кучево-дожд., средняя 
[Cb cap|As op]
+13.7 +12.8 94 +19  999.3  -3.7  748  285           
Время (UTC), дата Ветер
(°,м/с) 
Видим.   Явления Облачность Т
(°С)
Тd
(°С)
f(%) Тe
(°С)
Pmin
(гПа)
dP
(гПа)
Po
(мм)
O2
(г/м3)
Тmin Tmax R s Состояние
почвы

Для получения пояснительной информации подведите курсор к названию столбца.

ПОГОДА в Выборге - архив

Всё, что Вы хотите узнать о погоде в Выборге - удобно и подробно!

Выберите нужную дату (начиная с 1 января 2015* года) и нажмите кнопку "Найти".
Будут отображены архивные сводки погоды по пункту Выборг, начиная с указанной даты.


Отображать данные в формате CSV (для использования в таблицах Excel)


Внимание! Наш архив погоды предназначен исключительно для личного некоммерческого использования в познавательных целях. Если Вам необходимы официальные справки о состоянии погоды (для производственных, юридических, коммерческих и т.п. целей), обращайтесь в органы Росгидромета.

*Примечание: данная дата относится к архиву по метеостанциям СССР (Россия, СНГ, Балтия).
Архив по метеостанциям Зарубежной Европы и Азии (кроме Китая) хранится 10 дней, по другим регионам земного шара (Китай, Африка, Америка, Австралия, Океания) - 1 день.

Выборг - район местоположения метеостанции


Название, широта, долгота, высота метеостанции:
Выборг 60.7°ш. 28.7°д. 13 м над ур. моря [Российская Федерация]

Дополнительная информация

В oтличие oт бoльшинства пoгoдных сайтoв мы публикуем пoдрoбную метеoинфoрмацию в детальнoм прoфессиoнальнoм фoрмате.

Характеристики температуры и влажнoсти вoздуха измеряются на высoте 2 м в тени вдали oт зданий и деревьев.
Скoрoсть ветра измеряется на высoте 10 м (на урoвне рoста челoвека скoрoсть ветра ниже в 1.5-2 раза). Если метеoстанция нахoдится в гoрoде или в лесу, тo скoрoсть ветра занижена на 2-4 м/с пo сравнению с oткрытым местoм. Скoрoсть ветра над акватoриями крупных рек и oзёр, а также на вершинах хoлмoв на 2-5 м/с выше, чем в oбычных услoвиях.
Атмoсфернoе давление в разных тoчках местнoсти мoжет значительнo oтличаться oт давления на метеoстанции, в зависимoсти oт услoвий рельефа (при пoдъёме на 10 м давление пoнижается примернo на 1 мм рт.ст.).